FW3211 Weather Reports


Display with metric or nautical units.
time (UTC)temp
F
wind
direction
speed
MPH
gust
MPH
rain 1hr
in
rain 24hr
in
rain mn
in
humidity
%
barometer
mb
20260903130837 83 154 3.0 7.0 0.00 0.00 0.00 62 1021.1
20260903130337 83 42 3.0 10.0 0.00 0.00 0.00 62 1021.1
20260903125839 83 149 3.0 10.0 0.00 0.00 0.00 61 1021.1
20260903125624 83 152 3.0 8.0 0.00 0.00 0.00 61 1021.1
20260903124834 83 145 3.0 7.0 0.00 0.00 0.00 62 1021.0
20260903124333 83 160 3.0 7.0 0.00 0.00 0.00 63 1021.0
20260903123832 83 143 3.0 9.0 0.00 0.00 0.00 65 1021.0
20260903123334 83 97 3.0 9.0 0.00 0.00 0.00 64 1021.0
20260903122833 83 151 3.0 7.0 0.00 0.00 0.00 64 1021.1
20260903122333 83 131 3.0 7.0 0.00 0.00 0.00 65 1021.1
20260903122135 83 140 3.0 7.0 0.00 0.00 0.00 65 1021.1
20260903121332 83 113 3.0 9.0 0.00 0.00 0.00 66 1021.1
20260903120832 82 101 4.0 9.0 0.00 0.00 0.00 66 1021.2
20260903120331 82 206 4.0 9.0 0.00 0.00 0.00 65 1021.2
20260903120224 82 186 3.0 8.0 0.00 0.00 0.00 66 1021.3
20260903115314 83 126 3.0 8.0 0.00 0.00 0.00 70 1021.3
20260903115058 83 106 3.0 8.0 0.00 0.00 0.00 71 1021.3
20260903114312 83 140 3.0 7.0 0.00 0.00 0.00 70 1021.3
20260903114109 83 148 3.0 7.0 0.00 0.00 0.00 69 1021.3
20260903113634 83 165 3.0 6.0 0.00 0.00 0.00 70 1021.3
20260903113121 82 122 3.0 7.0 0.00 0.00 0.00 71 1021.3
20260903112313 82 151 3.0 7.0 0.00 0.00 0.00 70 1021.3
20260903111813 82 110 3.0 7.0 0.00 0.00 0.00 70 1021.4
20260903111313 82 134 3.0 10.0 0.00 0.00 0.00 70 1021.5
20260903110811 83 169 3.0 10.0 0.00 0.00 0.00 70 1021.5
20260903110309 82 110 3.0 8.0 0.00 0.00 0.00 70 1021.5
20260903105809 82 143 3.0 6.0 0.00 0.00 0.00 70 1021.6
20260903105311 82 143 2.0 6.0 0.00 0.00 0.00 70 1021.5
20260903104810 82 114 2.0 6.0 0.00 0.00 0.00 69 1021.8
20260903104310 82 120 2.0 6.0 0.00 0.00 0.00 68 1021.8
20260903103804 82 129 2.0 5.0 0.00 0.00 0.00 68 1021.8
20260903103552 82 141 2.0 6.0 0.00 0.00 0.00 67 1021.8
20260903103102 83 148 2.0 6.0 0.00 0.00 0.00 65 1021.8
20260903102552 83 128 2.0 5.0 0.00 0.00 0.00 65 1021.8
20260903101805 83 164 2.0 5.0 0.00 0.00 0.00 64 1021.8
20260903101553 82 129 2.0 6.0 0.00 0.00 0.00 64 1022.0
20260903100805 82 133 2.0 6.0 0.00 0.00 0.00 64 1022.0
20260903100307 82 160 2.0 4.0 0.00 0.00 0.00 64 1022.1
20260903095805 82 171 2.0 5.0 0.00 0.00 0.00 63 1022.1
20260903095630 82 202 2.0 5.0 0.00 0.00 0.00 65 1022.2
20260903095327 82 170 2.0 5.0 0.00 0.00 0.00 65 1022.1
20260903094305 82 147 2.0 5.0 0.00 0.00 0.00 65 1022.2
20260903093809 81 171 2.0 6.0 0.00 0.00 0.00 65 1022.2
20260903093308 81 120 2.0 6.0 0.00 0.00 0.00 66 1022.3
20260903092804 81 151 2.0 5.0 0.00 0.00 0.00 66 1022.3
20260903092306 81 125 2.0 5.0 0.00 0.00 0.00 65 1022.4
20260903091808 80 112 2.0 4.0 0.00 0.00 0.00 66 1022.4
20260903091303 80 183 2.0 4.0 0.00 0.00 0.00 67 1022.3
20260903090804 80 131 2.0 4.0 0.00 0.00 0.00 67 1022.3
20260903090304 79 112 2.0 6.0 0.00 0.00 0.00 69 1022.3
20260903085804 79 143 2.0 6.0 0.00 0.00 0.00 69 1022.3
20260903085548 79 126 2.0 5.0 0.00 0.00 0.00 70 1022.2
20260903084804 79 145 2.0 5.0 0.00 0.00 0.00 71 1022.1
20260903084306 79 171 1.0 5.0 0.00 0.00 0.00 71 1022.2
20260903083804 79 193 2.0 5.0 0.00 0.00 0.00 71 1022.2
20260903083303 78 127 2.0 4.0 0.00 0.00 0.00 72 1022.2
20260903082804 78 149 2.0 4.0 0.00 0.00 0.00 72 1022.1
20260903082308 78 137 2.0 4.0 0.00 0.00 0.00 71 1022.0
20260903081804 78 135 2.0 3.0 0.00 0.00 0.00 71 1021.8
20260903081556 77 138 2.0 4.0 0.00 0.00 0.00 71 1021.8
20260903081155 77 162 2.0 5.0 0.00 0.00 0.00 70 1021.8
20260903081150 77 137 2.0 4.0 0.00 0.00 0.00 71 1021.8
20260903075805 77 163 2.0 5.0 0.00 0.00 0.00 71 1021.8
20260903075307 76 152 2.0 3.0 0.00 0.00 0.00 71 1021.7
20260903074810 76 152 2.0 4.0 0.00 0.00 0.00 71 1021.7
20260903074306 76 143 2.0 4.0 0.00 0.00 0.00 71 1021.6
20260903073805 76 110 2.0 4.0 0.00 0.00 0.00 70 1021.5
20260903073306 76 127 2.0 4.0 0.00 0.00 0.00 70 1021.5
20260903072805 76 124 2.0 4.0 0.00 0.00 0.00 71 1021.5
20260903072306 75 125 2.0 4.0 0.00 0.00 0.00 70 1021.5
20260903071809 75 126 1.0 3.0 0.00 0.00 0.00 72 1021.5
20260903071305 75 125 2.0 3.0 0.00 0.00 0.00 72 1021.5
20260903070804 75 126 2.0 3.0 0.00 0.00 0.00 72 1021.4
20260903070550 75 126 2.0 3.0 0.00 0.00 0.00 71 1021.4
20260903070114 75 125 2.0 3.0 0.00 0.00 0.00 70 1021.4
20260903065306 75 125 1.0 3.0 0.00 0.00 0.00 70 1021.4
20260903064804 75 125 1.0 3.0 0.00 0.00 0.00 70 1021.4
20260903064306 75 125 1.0 3.0 0.00 0.00 0.00 70 1021.4
20260903063804 75 125 1.0 3.0 0.00 0.00 0.00 72 1021.3
20260903063303 75 125 1.0 3.0 0.00 0.00 0.00 72 1021.3
20260903062809 74 125 1.0 3.0 0.00 0.00 0.00 72 1021.3
20260903062306 75 58 1.0 3.0 0.00 0.00 0.00 71 1021.3
20260903061803 75 58 1.0 3.0 0.00 0.00 0.00 72 1021.3
20260903061547 75 58 1.0 2.0 0.00 0.00 0.00 72 1021.1
20260903060803 74 58 0.0 3.0 0.00 0.00 0.00 72 1021.1
20260903060314 74 58 0.0 3.0 0.00 0.00 0.00 71 1021.1
20260903060111 74 57 0.0 2.0 0.00 0.00 0.00 71 1021.1
20260903055309 74 57 1.0 2.0 0.00 0.00 0.00 71 1021.0
20260903054807 73 359 0.0 2.0 0.00 0.00 0.00 71 1021.0
20260903054319 73 359 0.0 1.0 0.00 0.00 0.00 71 1021.0
20260903054116 72 359 0.0 1.0 0.00 0.00 0.00 71 1020.9
20260903053306 72 359 0.0 1.0 0.00 0.00 0.00 71 1020.9
20260903052821 71 359 0.0 1.0 0.00 0.00 0.00 70 1020.9
20260903052307 71 359 0.0 1.0 0.00 0.00 0.00 71 1020.8
20260903051809 71 359 1.0 2.0 0.00 0.00 0.00 73 1020.8
20260903051421 70 359 2.0 3.0 0.00 0.00 0.00 73 1020.8
20260903051402 70 359 1.0 2.0 0.00 0.00 0.00 73 1020.8
20260903050307 69 359 2.0 3.0 0.00 0.00 0.00 73 1020.7
20260903045806 69 359 2.0 2.0 0.00 0.00 0.00 72 1020.6
20260903045337 69 359 1.0 2.0 0.00 0.00 0.00 71 1020.6
20260903045326 69 359 2.0 2.0 0.00 0.00 0.00 71 1020.6
20260903044305 69 359 2.0 3.0 0.00 0.00 0.00 71 1020.6
20260903044041 69 359 2.0 3.0 0.00 0.00 0.00 72 1020.5
20260903043306 69 359 1.0 3.0 0.00 0.00 0.00 71 1020.5
20260903042805 69 359 1.0 2.0 0.00 0.00 0.00 70 1020.5
20260903042547 69 359 1.0 2.0 0.00 0.00 0.00 70 1020.5
20260903041806 69 359 1.0 2.0 0.00 0.00 0.00 70 1020.5
20260903041300 69 359 2.0 3.0 0.00 0.00 0.00 70 1020.5
20260903040759 69 359 2.0 3.0 0.00 0.00 0.00 70 1020.5
20260903040259 69 359 2.0 3.0 0.00 0.00 0.00 70 1020.5
20260903035804 69 359 2.0 3.0 0.00 0.00 0.00 70 1020.5
20260903035301 69 359 2.0 3.0 0.00 0.00 0.00 70 1020.5
20260903034759 69 359 1.0 2.0 0.00 0.00 0.00 70 1020.5
20260903034544 69 359 1.0 2.0 0.00 0.00 0.00 71 1020.5
20260903033759 69 359 1.0 2.0 0.00 0.00 0.00 71 1020.5
20260903033301 69 359 1.0 2.0 0.00 0.00 0.00 71 1020.5
20260903032757 69 359 1.0 2.0 0.00 0.00 0.00 70 1020.5
20260903032258 69 359 1.0 2.0 0.00 0.00 0.00 70 1020.5
20260903032049 69 359 1.0 2.0 0.00 0.00 0.00 71 1020.5
20260903031300 69 359 1.0 2.0 0.00 0.00 0.00 71 1020.5
20260903031046 69 359 1.0 3.0 0.00 0.00 0.00 71 1020.5
20260903030257 70 359 1.0 3.0 0.00 0.00 0.00 72 1020.6
20260903025759 70 359 1.0 2.0 0.00 0.00 0.00 71 1020.5
20260903025256 70 359 1.0 2.0 0.00 0.00 0.00 71 1020.6
20260903024757 70 359 1.0 2.0 0.00 0.00 0.00 71 1020.6
20260903024257 70 359 1.0 2.0 0.00 0.00 0.00 71 1020.5
20260903023756 70 359 1.0 2.0 0.00 0.00 0.00 70 1020.6
20260903023258 70 359 1.0 2.0 0.00 0.00 0.00 71 1020.6
20260903022756 70 359 1.0 3.0 0.00 0.00 0.00 70 1020.6
20260903022542 70 359 2.0 3.0 0.00 0.00 0.00 70 1020.6
20260903021757 70 359 1.0 3.0 0.00 0.00 0.00 70 1020.6
20260903021256 70 359 1.0 2.0 0.00 0.00 0.00 70 1020.6
20260903020756 70 359 1.0 2.0 0.00 0.00 0.00 70 1020.6
20260903020257 70 359 1.0 2.0 0.00 0.00 0.00 69 1020.6
20260903020130 70 359 1.0 2.0 0.00 0.00 0.00 70 1020.6
20260903015256 70 359 1.0 2.0 0.00 0.00 0.00 70 1020.6
20260903014756 69 359 1.0 2.0 0.00 0.00 0.00 70 1020.6
20260903014255 70 359 1.0 2.0 0.00 0.00 0.00 70 1020.6
20260903013754 70 359 1.0 2.0 0.00 0.00 0.00 70 1020.6
20260903013253 70 359 1.0 3.0 0.00 0.00 0.00 70 1020.6
20260903012754 70 359 1.0 3.0 0.00 0.00 0.00 70 1020.6
20260903012252 69 315 0.0 2.0 0.00 0.00 0.00 70 1020.5
20260903011752 69 266 0.0 2.0 0.00 0.00 0.00 70 1020.5
20260903011252 69 266 0.0 2.0 0.00 0.00 0.00 70 1020.5
20260903010751 69 266 0.0 2.0 0.00 0.00 0.00 70 1020.6
20260903010247 69 266 1.0 2.0 0.00 0.00 0.00 70 1020.6
20260903005745 69 266 1.0 2.0 0.00 0.00 0.00 70 1020.5
20260903005244 69 266 1.0 2.0 0.00 0.00 0.00 70 1020.6
20260903004743 69 266 1.0 2.0 0.00 0.00 0.00 70 1020.6
20260903004240 69 266 1.0 2.0 0.00 0.00 0.00 70 1020.6
20260903003738 69 266 1.0 1.0 0.00 0.00 0.00 70 1020.7
20260903003236 69 266 0.0 1.0 0.00 0.00 0.00 70 1020.7
20260903002734 69 266 0.0 2.0 0.00 0.00 0.00 70 1020.7
20260903002234 69 266 1.0 2.0 0.00 0.00 0.00 71 1020.7
20260903002014 69 266 1.0 3.0 0.00 0.00 0.00 71 1020.7
20260903001232 68 266 1.0 3.0 0.00 0.00 0.00 71 1020.7
20260903000734 68 266 1.0 3.0 0.00 0.00 0.00 72 1020.8
20260903000241 68 266 2.0 3.0 0.00 0.00 0.00 72 1020.7
20260902235732 69 266 1.0 3.0 0.00 0.00 0.00 73 1020.7
20260902235232 69 266 2.0 3.0 0.00 0.00 0.00 73 1020.8
20260902234734 69 266 2.0 3.0 0.00 0.00 0.00 74 1020.9
20260902234232 69 260 1.0 2.0 0.00 0.00 0.00 74 1020.9
20260902233732 70 260 0.0 2.0 0.00 0.00 0.00 74 1020.9
20260902233525 70 260 0.0 3.0 0.00 0.00 0.00 74 1020.9
20260902232732 70 260 1.0 3.0 0.00 0.00 0.00 74 1020.8
20260902232232 70 260 1.0 3.0 0.00 0.00 0.00 74 1020.8
20260902231735 70 152 1.0 2.0 0.00 0.00 0.00 74 1020.8
20260902231255 70 152 1.0 2.0 0.00 0.00 0.00 73 1020.8
20260902231251 70 152 1.0 2.0 0.00 0.00 0.00 73 1020.8
20260902230524 70 152 1.0 2.0 0.00 0.00 0.00 73 1020.8
20260902225724 70 152 1.0 2.0 0.00 0.00 0.00 73 1020.7
20260902225222 70 152 1.0 2.0 0.00 0.00 0.00 73 1020.6
20260902224722 70 152 2.0 3.0 0.00 0.00 0.00 73 1020.6
20260902224524 71 152 1.0 3.0 0.00 0.00 0.00 72 1020.7
20260902223720 71 152 1.0 2.0 0.00 0.00 0.00 73 1020.7
20260902223223 71 152 1.0 2.0 0.00 0.00 0.00 73 1020.7
20260902222724 71 152 0.0 2.0 0.00 0.00 0.00 73 1020.7
20260902222218 71 152 0.0 3.0 0.00 0.00 0.00 73 1020.8
20260902221716 71 152 0.0 3.0 0.00 0.00 0.00 73 1020.8
20260902221216 71 37 0.0 2.0 0.00 0.00 0.00 73 1020.7
20260902220749 71 37 1.0 3.0 0.00 0.00 0.00 73 1020.6
20260902220732 71 37 0.0 3.0 0.00 0.00 0.00 73 1020.7
20260902215714 72 28 0.0 2.0 0.00 0.00 0.00 73 1020.7
20260902215213 72 28 0.0 1.0 0.00 0.00 0.00 73 1020.7
20260902214712 72 28 0.0 2.0 0.00 0.00 0.00 73 1020.6
20260902214209 72 28 0.0 2.0 0.00 0.00 0.00 73 1020.6
20260902213949 72 21 0.0 2.0 0.00 0.00 0.00 74 1020.6
20260902213209 72 21 0.0 2.0 0.00 0.00 0.00 74 1020.6
20260902212947 72 21 0.0 2.0 0.00 0.00 0.00 74 1020.6
20260902212224 72 21 0.0 2.0 0.00 0.00 0.00 74 1020.7
20260902211709 71 21 0.0 2.0 0.00 0.00 0.00 74 1020.6
20260902211209 72 21 0.0 2.0 0.00 0.00 0.00 74 1020.6
20260902210707 72 21 0.0 2.0 0.00 0.00 0.00 74 1020.7
20260902210208 72 21 0.0 1.0 0.00 0.00 0.00 74 1020.7
20260902205946 72 21 0.0 1.0 0.00 0.00 0.00 74 1020.7
20260902205209 72 21 0.0 1.0 0.00 0.00 0.00 74 1020.7
20260902204711 72 21 0.0 1.0 0.00 0.00 0.00 74 1020.6
20260902204207 72 21 0.0 1.0 0.00 0.00 0.00 74 1020.5
20260902203710 72 21 0.0 1.0 0.00 0.00 0.00 74 1020.5
20260902203206 72 21 0.0 1.0 0.00 0.00 0.00 74 1020.4
20260902202942 71 21 0.0 1.0 0.00 0.00 0.00 73 1020.5
20260902202208 71 21 1.0 2.0 0.00 0.00 0.00 73 1020.5
20260902201706 71 21 1.0 2.0 0.00 0.00 0.00 73 1020.4
20260902201205 71 21 1.0 2.0 0.00 0.00 0.00 73 1020.4
20260902200707 71 21 0.0 1.0 0.00 0.00 0.00 73 1020.4
20260902200440 71 21 0.0 2.0 0.00 0.00 0.00 73 1020.4
20260902195943 71 21 1.0 2.0 0.00 0.00 0.00 73 1020.4
20260902195205 71 21 1.0 3.0 0.00 0.00 0.00 73 1020.4
20260902194705 71 21 1.0 3.0 0.00 0.00 0.00 73 1020.5
20260902194205 71 21 1.0 2.0 0.00 0.00 0.00 73 1020.4
20260902193705 71 21 1.0 3.0 0.00 0.00 0.00 73 1020.4
20260902193205 71 21 1.0 3.0 0.00 0.00 0.00 73 1020.4
20260902192706 71 21 1.0 2.0 0.00 0.00 0.00 73 1020.4
20260902192208 71 21 1.0 2.0 0.00 0.00 0.00 73 1020.4
20260902191709 71 21 1.0 2.0 0.00 0.00 0.00 73 1020.4
20260902191444 71 21 1.0 2.0 0.00 0.00 0.00 73 1020.3
20260902190708 71 21 1.0 2.0 0.00 0.00 0.00 73 1020.2
20260902190205 71 21 1.0 2.0 0.00 0.00 0.00 73 1020.3
20260902185707 71 21 1.0 2.0 0.00 0.00 0.00 73 1020.3
20260902185207 71 21 1.0 2.0 0.00 0.00 0.00 73 1020.2
20260902184704 71 21 1.0 2.0 0.00 0.00 0.00 73 1020.1
20260902184206 71 21 1.0 2.0 0.00 0.00 0.00 72 1020.0
20260902183945 71 21 1.0 2.0 0.00 0.00 0.00 72 1019.9
20260902183444 71 21 1.0 2.0 0.00 0.00 0.00 72 1020.0
20260902182706 72 21 1.0 2.0 0.00 0.00 0.00 72 1020.0
20260902182205 72 21 1.0 2.0 0.00 0.00 0.00 72 1019.9
20260902181704 72 21 1.0 3.0 0.00 0.00 0.00 72 1019.9
20260902181206 72 21 1.0 3.0 0.00 0.00 0.00 72 1019.9
20260902181111 72 21 1.0 2.0 0.00 0.00 0.00 72 1019.8
20260902181101 72 21 1.0 2.0 0.00 0.00 0.00 72 1019.9
20260902175703 72 21 1.0 2.0 0.00 0.00 0.00 72 1019.9
20260902175206 72 21 1.0 2.0 0.00 0.00 0.00 72 1019.8
20260902174705 72 21 1.0 3.0 0.00 0.00 0.00 72 1019.9
20260902174201 72 21 1.0 3.0 0.00 0.00 0.00 72 1019.8
20260902173947 72 21 1.0 2.0 0.00 0.00 0.00 72 1019.8
20260902173200 73 21 1.0 2.0 0.00 0.00 0.00 73 1019.8
20260902172659 73 21 1.0 4.0 0.00 0.00 0.00 73 1019.8
20260902172158 73 261 2.0 4.0 0.00 0.00 0.00 73 1019.8
20260902171656 73 285 1.0 4.0 0.00 0.00 0.00 73 1019.9
20260902171245 73 314 1.0 3.0 0.00 0.00 0.00 73 1019.9
20260902171226 73 44 1.0 4.0 0.00 0.00 0.00 73 1019.9
20260902170156 73 16 1.0 5.0 0.00 0.00 0.00 73 1019.9
20260902165651 73 297 1.0 5.0 0.00 0.00 0.00 73 1019.9
20260902165146 73 228 1.0 3.0 0.00 0.00 0.00 73 1019.9
20260902164638 74 222 1.0 5.0 0.00 0.00 0.00 73 1019.9
20260902164137 74 233 2.0 5.0 0.00 0.00 0.00 74 1019.9
20260902163950 74 269 2.0 6.0 0.00 0.00 0.00 74 1019.9
20260902163946 74 309 2.0 6.0 0.00 0.00 0.00 74 1019.8
20260902162635 74 290 2.0 6.0 0.00 0.00 0.00 74 1019.9
20260902162134 74 256 1.0 4.0 0.00 0.00 0.00 74 1019.9
20260902161634 74 208 1.0 3.0 0.00 0.00 0.00 74 1019.9
20260902161134 74 208 1.0 3.0 0.00 0.00 0.00 74 1019.9
20260902160633 74 206 1.0 7.0 0.00 0.00 0.00 74 1020.0
20260902160136 74 283 1.0 7.0 0.00 0.00 0.00 74 1019.9
20260902155922 74 237 2.0 5.0 0.00 0.00 0.00 74 1019.9
20260902155134 74 239 1.0 4.0 0.00 0.00 0.00 74 1019.9
20260902154632 74 221 1.0 4.0 0.00 0.00 0.00 75 1019.9
20260902154130 74 49 2.0 6.0 0.00 0.00 0.00 75 1019.9
20260902153627 75 114 2.0 6.0 0.00 0.00 0.00 76 1020.0
20260902153121 75 233 2.0 4.0 0.00 0.00 0.00 76 1020.1
20260902152616 75 246 2.0 4.0 0.00 0.00 0.00 77 1020.1
20260902152116 75 241 2.0 5.0 0.00 0.00 0.00 77 1020.2
20260902151705 76 293 2.0 4.0 0.00 0.00 0.00 77 1020.1
20260902151648 75 315 2.0 5.0 0.00 0.00 0.00 77 1020.1
20260902150626 76 144 2.0 6.0 0.00 0.00 0.00 76 1020.2
20260902150117 76 113 2.0 6.0 0.00 0.00 0.00 76 1020.2
20260902145616 76 97 1.0 4.0 0.00 0.00 0.00 76 1020.2
20260902145116 76 178 1.0 3.0 0.00 0.00 0.00 76 1020.2
20260902144615 76 176 2.0 4.0 0.00 0.00 0.00 76 1020.2
20260902144115 76 176 2.0 4.0 0.00 0.00 0.00 75 1020.3
20260902143617 77 191 2.0 6.0 0.00 0.00 0.00 75 1020.2
20260902143116 76 141 2.0 6.0 0.00 0.00 0.00 75 1020.2
20260902142617 77 94 2.0 6.0 0.00 0.00 0.00 75 1020.1
20260902142110 77 24 2.0 4.0 0.00 0.00 0.00 75 1020.1
20260902141606 76 132 2.0 4.0 0.00 0.00 0.00 76 1020.2
20260902141109 76 138 2.0 8.0 0.00 0.00 0.00 76 1020.3
20260902140606 76 109 2.0 8.0 0.00 0.00 0.00 76 1020.4
20260902140344 76 44 2.0 6.0 0.00 0.00 0.00 76 1020.4
20260902135604 76 199 2.0 8.0 0.00 0.00 0.00 77 1020.4
20260902135107 76 67 2.0 8.0 0.00 0.00 0.00 76 1020.5
20260902134604 76 122 2.0 4.0 0.00 0.00 0.00 77 1020.5
20260902134103 76 114 2.0 7.0 0.00 0.00 0.00 77 1020.5
20260902133604 76 73 3.0 7.0 0.00 0.00 0.00 76 1020.6
20260902133105 77 96 3.0 7.0 0.00 0.00 0.00 76 1020.6
20260902132604 77 226 3.0 7.0 0.00 0.00 0.00 75 1020.6
20260902132103 77 113 2.0 7.0 0.00 0.00 0.00 75 1020.6
20260902131603 77 210 2.0 7.0 0.00 0.00 0.00 75 1020.7